Ainsworth, NE

1:05 AM CDT on August 31, 2016 (GMT -0500)
Ainsworth Municipal

Weather History for KANW - November, 2013

Change the Weather History Date:

Monday, November 25, 2013

  Actual Average Record
Temperature  
Mean Temperature 34 °F -  
Max Temperature 41 °F 41 °F 62 °F (1997)
Min Temperature 27 °F 22 °F -2 °F (2010)
Degree Days  
Heating Degree Days 31    
Moisture  
Dew Point 24 °F    
Average Humidity 69    
Maximum Humidity 86    
Minimum Humidity 47    
Precipitation  
Precipitation 0.00 in - - ()
Sea Level Pressure  
Sea Level Pressure 30.14 in    
Wind  
Wind Speed 10 mph (NW)    
Max Wind Speed 18 mph    
Max Gust Speed 25 mph    
Visibility 10 miles    
Events      
Averages and records for this station are not official NWS values.
T = Trace of Precipitation, MM = Missing Value Source: NWS Daily Summary

Daily Weather History Graph

Daily Weather History Graph

Search for Another Location

Airport or City:

Trip Planner

Search our weather history database for the weather conditions in past years. The results will help you decide how hot, cold, wet, or windy it might be!

Date:

Astronomy

Nov. 25, 2013 Rise Set
Actual Time 7:43 AM CST 5:10 PM CST
Civil Twilight 7:12 AM CST 5:41 PM CST
Nautical Twilight 6:37 AM CST 6:15 PM CST
Astronomical Twilight 6:04 AM CST 6:49 PM CST
Moon No Moon Rise 12:56 PM CST (11/25)
Length of Visible Light 10h 28m
Length of Day
9h 26m
Waning Gibbous, 51% of the Moon is Illuminated
Nov 25
Waning Gibbous
Nov 25
Last Quarter
Dec 2
New
Dec 9
First Quarter
Dec 17
Full

Hourly Weather History & Observations

Time (CST) Temp. Windchill Dew Point Humidity Pressure Visibility Wind Dir Wind Speed Gust Speed Precip Events Conditions
12:15 AM 32.0 °F 23.6 °F 25.3 °F 76% 29.98 in 10.0 mi WSW 10.4 mph - N/A   Clear
12:35 AM 32.0 °F 23.0 °F 25.5 °F 77% 29.98 in 10.0 mi WSW 11.5 mph - N/A   Clear
12:55 AM 31.1 °F 23.1 °F 25.3 °F 79% 29.98 in 10.0 mi SW 9.2 mph - N/A   Clear
1:15 AM 30.0 °F 21.7 °F 25.0 °F 82% 29.98 in 10.0 mi WSW 9.2 mph - N/A   Clear
1:35 AM 29.7 °F 21.3 °F 25.2 °F 83% 29.98 in 10.0 mi WSW 9.2 mph - N/A   Clear
1:55 AM 29.3 °F 21.5 °F 24.6 °F 83% 29.98 in 10.0 mi WSW 8.1 mph - N/A   Clear
2:15 AM 28.0 °F 20.0 °F 23.9 °F 84% 29.99 in 10.0 mi West 8.1 mph - N/A   Clear
2:35 AM 27.5 °F 19.3 °F 23.9 °F 86% 29.99 in 10.0 mi West 8.1 mph - N/A   Clear
2:55 AM 27.3 °F 19.1 °F 23.2 °F 84% 29.99 in 10.0 mi WNW 8.1 mph - N/A   Clear
3:15 AM 28.2 °F 19.5 °F 23.5 °F 83% 30.01 in 10.0 mi NW 9.2 mph - N/A   Clear
3:35 AM 30.0 °F 21.1 °F 24.6 °F 80% 30.01 in 10.0 mi NW 10.4 mph - N/A   Mostly Cloudy
3:55 AM 30.6 °F 21.2 °F 24.6 °F 79% 30.01 in 10.0 mi NW 11.5 mph - N/A   Scattered Clouds
4:15 AM 30.4 °F 20.5 °F 24.6 °F 79% 30.02 in 10.0 mi NNW 12.7 mph - N/A   Clear
4:35 AM 30.2 °F 22.6 °F 24.4 °F 79% 30.03 in 10.0 mi NNW 8.1 mph - N/A   Clear
4:55 AM 30.7 °F 22.0 °F 24.8 °F 79% 30.03 in 10.0 mi NNW 10.4 mph - N/A   Clear
5:15 AM 31.1 °F 23.1 °F 24.8 °F 77% 30.04 in 10.0 mi NW 9.2 mph - N/A   Scattered Clouds
5:35 AM 32.0 °F 27.5 °F 26.1 °F 79% 30.05 in 10.0 mi NW 4.6 mph - N/A   Overcast
5:55 AM 32.0 °F 28.7 °F 26.4 °F 80% 30.05 in 10.0 mi NW 3.5 mph - N/A   Overcast
6:15 AM 34.2 °F 28.2 °F 27.3 °F 76% 30.07 in 10.0 mi NW 6.9 mph - N/A   Overcast
6:35 AM 34.9 °F 27.1 °F 27.1 °F 73% 30.08 in 10.0 mi NNW 10.4 mph - N/A   Overcast
6:55 AM 34.3 °F 25.9 °F 26.6 °F 73% 30.08 in 10.0 mi NNW 11.5 mph - N/A   Mostly Cloudy
7:15 AM 34.0 °F 27.2 °F 26.2 °F 73% 30.10 in 10.0 mi NW 8.1 mph - N/A   Scattered Clouds
7:35 AM 33.3 °F 25.7 °F 25.7 °F 74% 30.10 in 10.0 mi NW 9.2 mph - N/A   Clear
7:55 AM 32.4 °F 24.6 °F 25.7 °F 76% 30.11 in 10.0 mi NW 9.2 mph - N/A   Clear
8:15 AM 32.4 °F 24.0 °F 25.7 °F 76% 30.12 in 10.0 mi NNW 10.4 mph - N/A   Clear
8:35 AM 33.3 °F 23.7 °F 25.7 °F 74% 30.13 in 10.0 mi NNW 13.8 mph - N/A   Clear
8:55 AM 34.0 °F 25.5 °F 25.7 °F 72% 30.15 in 10.0 mi NNW 11.5 mph - N/A   Clear
9:15 AM 34.7 °F 27.5 °F 25.7 °F 70% 30.16 in 10.0 mi NNW 9.2 mph - N/A   Clear
9:35 AM 35.6 °F 25.5 °F 26.2 °F 69% 30.16 in 10.0 mi NNW 17.3 mph - N/A   Clear
9:55 AM 35.6 °F 25.5 °F 25.9 °F 68% 30.16 in 10.0 mi NNW 17.3 mph 25.3 mph N/A   Clear
10:15 AM 36.1 °F 25.9 °F 25.9 °F 66% 30.17 in 10.0 mi NNW 18.4 mph 21.9 mph N/A   Clear
10:35 AM 36.5 °F 27.8 °F 25.9 °F 65% 30.17 in 10.0 mi NW 13.8 mph - N/A   Clear
10:55 AM 37.2 °F 27.9 °F 25.5 °F 63% 30.17 in 10.0 mi NNW 16.1 mph 23.0 mph N/A   Clear
11:15 AM 37.9 °F 28.5 °F 25.5 °F 61% 30.17 in 10.0 mi NNW 17.3 mph - N/A   Clear
11:35 AM 38.3 °F 28.7 °F 25.5 °F 60% 30.17 in 10.0 mi NNW 18.4 mph - N/A   Clear
11:55 AM 39.0 °F 29.6 °F 24.8 °F 57% 30.17 in 10.0 mi NNW 18.4 mph - N/A   Clear
12:15 PM 39.4 °F 30.4 °F 24.4 °F 55% 30.17 in 10.0 mi NNW 17.3 mph - N/A   Clear
12:35 PM 40.3 °F 32.2 °F 24.6 °F 54% 30.17 in 10.0 mi NNW 15.0 mph - N/A   Clear
12:55 PM 40.8 °F 32.9 °F 25.0 °F 53% 30.17 in 10.0 mi NNW 15.0 mph - N/A   Clear
1:15 PM 41.2 °F 34.1 °F 23.9 °F 50% 30.17 in 10.0 mi NNW 12.7 mph - N/A   Clear
1:35 PM 41.5 °F 33.5 °F 23.9 °F 50% 30.17 in 10.0 mi NNW 16.1 mph - N/A   Clear
1:55 PM 41.5 °F 33.2 °F 23.5 °F 49% 30.17 in 10.0 mi NNW 17.3 mph - N/A   Clear
2:15 PM 41.5 °F 33.8 °F 23.2 °F 48% 30.17 in 10.0 mi NW 15.0 mph - N/A   Clear
2:35 PM 41.2 °F 33.7 °F 22.5 °F 47% 30.16 in 10.0 mi NW 13.8 mph - N/A   Clear
2:55 PM 41.7 °F 34.1 °F 23.0 °F 47% 30.17 in 10.0 mi NNW 15.0 mph 21.9 mph N/A   Clear
3:15 PM 41.2 °F 32.7 °F 23.0 °F 48% 30.17 in 10.0 mi NW 17.3 mph 23.0 mph N/A   Clear
3:35 PM 40.3 °F 33.4 °F 23.0 °F 50% 30.17 in 10.0 mi NW 11.5 mph - N/A   Clear
3:55 PM 40.1 °F 34.7 °F 23.9 °F 52% 30.18 in 10.0 mi NW 8.1 mph - N/A   Clear
4:15 PM 39.7 °F 34.9 °F 23.9 °F 53% 30.19 in 10.0 mi NW 6.9 mph - N/A   Clear
4:35 PM 38.7 °F 31.8 °F 23.0 °F 53% 30.19 in 10.0 mi NW 10.4 mph - N/A   Clear
4:55 PM 37.6 °F 30.0 °F 22.1 °F 54% 30.19 in 10.0 mi NW 11.5 mph - N/A   Clear
5:15 PM 35.8 °F 28.8 °F 22.6 °F 59% 30.19 in 10.0 mi NNW 9.2 mph - N/A   Clear
5:35 PM 34.0 °F 27.2 °F 22.8 °F 64% 30.20 in 10.0 mi NW 8.1 mph - N/A   Clear
5:55 PM 35.1 °F 30.1 °F 21.9 °F 59% 30.21 in 10.0 mi WNW 5.8 mph - N/A   Clear
6:15 PM 32.7 °F - 22.8 °F 67% 30.21 in 10.0 mi Calm Calm - N/A   Clear
6:55 PM 31.5 °F 24.9 °F 21.9 °F 68% 30.21 in 10.0 mi NW 6.9 mph - N/A   Clear
7:15 PM 31.3 °F 26.6 °F 21.7 °F 68% 30.22 in 10.0 mi WNW 4.6 mph - N/A   Clear
7:35 PM 30.4 °F 23.6 °F 22.6 °F 73% 30.22 in 10.0 mi WNW 6.9 mph - N/A   Clear
7:55 PM 31.1 °F 24.5 °F 21.9 °F 69% 30.22 in 10.0 mi WNW 6.9 mph - N/A   Clear
8:15 PM 31.1 °F 24.5 °F 22.1 °F 69% 30.23 in 10.0 mi WNW 6.9 mph - N/A   Clear
8:35 PM 30.4 °F 22.9 °F 21.7 °F 70% 30.22 in 10.0 mi WNW 8.1 mph - N/A   Clear
8:55 PM 30.4 °F 25.6 °F 21.4 °F 69% 30.23 in 10.0 mi WNW 4.6 mph - N/A   Clear
9:15 PM 28.9 °F 21.9 °F 21.2 °F 73% 30.23 in 10.0 mi WNW 6.9 mph - N/A   Clear
9:35 PM 29.7 °F 21.3 °F 21.2 °F 71% 30.23 in 10.0 mi WNW 9.2 mph - N/A   Clear
9:55 PM 27.9 °F 24.0 °F 21.0 °F 75% 30.23 in 10.0 mi West 3.5 mph - N/A   Clear
10:15 PM 27.3 °F 20.9 °F 20.8 °F 77% 30.23 in 10.0 mi WNW 5.8 mph - N/A   Clear
10:35 PM 28.4 °F 20.4 °F 21.2 °F 74% 30.23 in 10.0 mi WNW 8.1 mph - N/A   Clear
10:55 PM 28.0 °F 21.7 °F 21.0 °F 75% 30.23 in 10.0 mi NW 5.8 mph - N/A   Clear
11:15 PM 27.5 °F 23.6 °F 20.8 °F 76% 30.23 in 10.0 mi NW 3.5 mph - N/A   Clear
11:35 PM 28.4 °F 19.7 °F 21.6 °F 76% 30.24 in 10.0 mi NW 9.2 mph - N/A   Clear
11:55 PM 28.2 °F 18.9 °F 21.0 °F 74% 30.24 in 10.0 mi NW 10.4 mph - N/A   Clear